Simultaneous Nadir Overpasses (SNOs) Predictions

Prediction of SNOs between NOAA-15 and METOP-C Satellite Orbit:

Table of predicted SNOs for the next 14.0 days since TLE Epoch: 5/7/2022
Index Date (NOAA-15) Time (NOAA-15) Lat,Lon (NOAA-15) SZA (NOAA-15 ) Date (METOP-C) Time (METOP-C) Lat,Lon (METOP-C) SZA (METOP-C ) Distance(km) Time Diff (sec)
1 05/19/2022 22:51:04 81.06,-124.56 63.22 05/19/2022 22:49:50 81.06,-124.71 63.17 2.69 74
2 05/19/2022 23:41:39 -81.06, 42.67 116.80 05/19/2022 23:40:30 -81.07, 42.84 116.81 2.88 69
3 05/20/2022 00:32:06 81.06,-149.87 63.20 05/20/2022 00:31:11 81.06,-149.86 63.18 0.43 55
4 05/20/2022 01:22:41 -81.07, 17.36 116.82 05/20/2022 01:21:52 -81.06, 17.32 116.85 1.09 49
5 05/20/2022 02:13:08 81.06,-175.19 63.18 05/20/2022 02:12:32 81.07,-175.01 63.19 3.24 36
6 05/20/2022 03:03:43 -81.07, -7.95 116.84 05/20/2022 03:03:13 -81.07, -7.82 116.84 2.21 30
7 05/20/2022 03:54:10 81.07, 159.50 63.16 05/20/2022 03:53:54 81.06, 159.47 63.15 0.45 16
8 05/20/2022 04:44:45 -81.07, -33.26 116.86 05/20/2022 04:44:35 -81.06, -33.34 116.88 1.87 10
9 05/20/2022 05:35:12 81.07, 134.18 63.14 05/20/2022 05:35:15 81.07, 134.33 63.16 2.51 3
10 05/20/2022 06:25:47 -81.07, -58.57 116.88 05/20/2022 06:25:56 -81.07, -58.49 116.87 1.67 9
11 05/20/2022 07:16:14 81.07, 108.87 63.12 05/20/2022 07:16:37 81.07, 108.81 63.12 1.23 23
12 05/20/2022 08:06:48 -81.06, -83.52 116.87 05/20/2022 08:07:17 -81.07, -83.63 116.86 2.60 29
13 05/20/2022 08:57:16 81.07, 83.55 63.11 05/20/2022 08:57:58 81.07, 83.66 63.13 1.83 42
14 05/20/2022 09:47:51 -81.08,-109.20 116.91 05/20/2022 09:48:39 -81.07,-109.15 116.90 1.42 48
15 05/20/2022 10:38:18 81.08, 58.24 63.09 05/20/2022 10:39:20 81.07, 58.14 63.10 2.02 62



Historial Predications of SNOs between NOAA-15 and METOP-C
